EW8360 Weather Reports


time (UTC)temp
F
wind
direction
speed
knots
gust
knots
rain 1hr
in
rain 24hr
in
rain mn
in
humidity
%
barometer
mb
20260901092534 68 310 1.7 4.3 0.00 0.00 0.00 89 1012.6
20260901092037 68 299 2.6 5.2 0.00 0.00 0.00 89 1012.6
20260901091535 68 273 3.5 5.2 0.00 0.00 0.00 89 1012.5
20260901091302 68 274 3.5 4.3 0.00 0.00 0.00 89 1012.6
20260901090534 68 325 2.6 4.3 0.00 0.00 0.00 90 1012.7
20260901090256 68 24 1.7 5.2 0.00 0.00 0.00 90 1012.7
20260901085536 67 28 1.7 5.2 0.00 0.00 0.00 90 1012.8
20260901084533 67 359 0.0 4.3 0.00 0.00 0.00 90 1012.7
20260901084035 67 333 0.0 1.7 0.00 0.00 0.00 90 1012.7
20260901083535 67 46 0.9 4.3 0.00 0.00 0.00 90 1012.7
20260901083034 67 25 0.9 4.3 0.00 0.00 0.00 90 1012.7
20260901082800 67 350 0.0 2.6 0.00 0.00 0.00 90 1012.7
20260901082033 67 306 0.0 0.0 0.00 0.00 0.00 90 1012.7
20260901081803 67 253 0.0 0.0 0.00 0.00 0.00 90 1012.7
20260901081033 67 265 0.0 0.0 0.00 0.00 0.00 90 1012.6
20260901080533 67 267 0.0 0.0 0.00 0.00 0.00 90 1012.7
20260901080032 67 267 0.0 2.6 0.00 0.00 0.00 90 1012.7
20260901075534 67 270 0.0 2.6 0.00 0.00 0.00 90 1012.7
20260901075034 67 267 0.0 0.0 0.00 0.00 0.00 90 1012.7
20260901074533 68 278 0.0 0.0 0.00 0.00 0.00 89 1012.7
20260901074032 68 297 0.0 0.0 0.00 0.00 0.00 89 1012.7
20260901073534 68 288 0.0 2.6 0.00 0.00 0.00 89 1012.7
20260901073035 68 297 1.7 4.3 0.00 0.00 0.00 89 1012.8
20260901072803 68 283 2.6 4.3 0.00 0.00 0.00 89 1012.8
20260901072032 68 271 0.9 4.3 0.00 0.00 0.00 89 1012.9
20260901071533 68 281 2.6 2.6 0.00 0.00 0.00 89 1012.8
20260901071033 68 271 0.9 2.6 0.00 0.00 0.00 89 1012.9
20260901070531 68 291 2.6 2.6 0.00 0.00 0.00 89 1012.9
20260901070032 68 275 1.7 4.3 0.00 0.00 0.00 89 1013.0
20260901065533 68 270 1.7 4.3 0.00 0.00 0.00 89 1012.9
20260901065033 68 302 1.7 4.3 0.00 0.00 0.00 89 1012.8
20260901064754 68 279 1.7 4.3 0.00 0.00 0.00 89 1012.8
20260901064031 68 284 1.7 4.3 0.00 0.00 0.00 89 1012.7
20260901063532 68 291 1.7 2.6 0.00 0.00 0.00 89 1012.8
20260901063255 68 274 1.7 4.3 0.00 0.00 0.00 89 1012.7
20260901062530 68 283 0.9 4.3 0.00 0.00 0.00 88 1012.8
20260901062031 68 277 1.7 2.6 0.00 0.00 0.00 89 1012.9
20260901061532 68 273 0.0 2.6 0.00 0.00 0.00 88 1012.8
20260901061251 69 264 0.0 4.3 0.00 0.00 0.00 88 1012.7
20260901060530 69 262 0.0 4.3 0.00 0.00 0.00 87 1012.7
20260901060030 69 289 2.6 6.1 0.00 0.00 0.00 87 1012.7
20260901055530 69 270 1.7 6.1 0.00 0.00 0.00 87 1012.7
20260901055032 69 322 3.5 5.2 0.00 0.00 0.00 87 1012.7
20260901054530 69 298 3.5 5.2 0.00 0.00 0.00 86 1012.8
20260901054030 69 328 3.5 5.2 0.00 0.00 0.00 86 1012.8
20260901053529 69 324 2.6 5.2 0.00 0.00 0.00 86 1012.8
20260901053031 69 304 1.7 4.3 0.00 0.00 0.00 86 1012.8
20260901052530 69 298 2.6 5.2 0.00 0.00 0.00 86 1012.8
20260901052029 69 295 2.6 6.1 0.00 0.00 0.00 85 1012.6
20260901051529 69 289 5.2 6.1 0.00 0.00 0.00 85 1012.6
20260901051255 69 293 4.3 5.2 0.00 0.00 0.00 85 1012.5
20260901050529 69 281 2.6 5.2 0.00 0.00 0.00 85 1012.5
20260901050029 69 260 0.0 5.2 0.00 0.00 0.00 85 1012.5
20260901045529 69 272 2.6 5.2 0.00 0.00 0.00 85 1012.5
20260901045029 69 294 2.6 5.2 0.00 0.00 0.00 85 1012.5
20260901044530 69 272 2.6 5.2 0.00 0.00 0.00 85 1012.5
20260901043528 69 279 2.6 5.2 0.00 0.00 0.00 86 1012.5
20260901043029 69 278 0.0 5.2 0.00 0.00 0.00 86 1012.3
20260901042529 69 311 2.6 4.3 0.00 0.00 0.00 86 1012.3
20260901042248 69 298 3.5 4.3 0.00 0.00 0.00 86 1012.3
20260901041527 69 297 1.7 5.2 0.00 0.00 0.00 86 1012.4
20260901041245 69 277 4.3 6.1 0.00 0.00 0.00 86 1012.3
20260901040529 69 294 3.5 6.1 0.00 0.00 0.00 86 1012.3
20260901040027 69 16 1.7 5.2 0.00 0.00 0.00 86 1012.2
20260901035747 69 270 0.9 5.2 0.00 0.00 0.00 86 1012.2
20260901035028 69 278 0.9 5.2 0.00 0.00 0.00 86 1012.2
20260901034027 69 261 1.7 7.8 0.00 0.00 0.00 86 1012.2
20260901033527 69 320 2.6 7.8 0.00 0.00 0.00 86 1012.1
20260901033029 69 336 7.0 7.8 0.00 0.00 0.00 86 1012.0
20260901032528 69 316 6.1 7.8 0.00 0.00 0.00 85 1012.0
20260901032247 69 319 6.1 7.8 0.00 0.00 0.00 85 1011.9
20260901031526 69 342 5.2 7.8 0.00 0.00 0.00 85 1011.9
20260901031028 69 303 4.3 7.8 0.00 0.00 0.00 85 1011.8
20260901030749 69 277 2.6 6.1 0.00 0.00 0.00 85 1011.7
20260901030026 69 294 3.5 6.1 0.00 0.00 0.00 86 1011.8
20260901025526 69 258 0.9 4.3 0.00 0.00 0.00 86 1011.8
20260901025026 69 284 1.7 4.3 0.00 0.00 0.00 86 1011.6
20260901024527 70 259 1.7 4.3 0.00 0.00 0.00 86 1011.5
20260901024025 70 270 0.9 5.2 0.00 0.00 0.00 85 1011.5
20260901023525 70 265 1.7 5.2 0.00 0.00 0.00 85 1011.3
20260901023025 70 240 0.9 6.1 0.00 0.00 0.00 85 1011.4
20260901022527 70 330 2.6 6.1 0.00 0.00 0.00 85 1011.2
20260901022025 71 261 0.9 6.1 0.00 0.00 0.00 84 1011.1
20260901021525 71 247 2.6 6.1 0.00 0.00 0.00 84 1011.1
20260901021026 71 291 2.6 6.1 0.00 0.00 0.00 83 1011.2
20260901020526 72 331 2.6 5.2 0.00 0.00 0.00 83 1011.2
20260901020251 72 282 1.7 5.2 0.00 0.00 0.00 82 1011.1
20260901015525 73 263 1.7 5.2 0.00 0.00 0.00 82 1011.1
20260901015025 73 278 1.7 6.1 0.00 0.00 0.00 81 1011.1
20260901014025 73 280 0.9 7.0 0.00 0.00 0.00 79 1011.1
20260901013034 74 308 1.7 5.2 0.00 0.00 0.00 77 1011.0
20260901012525 74 255 0.0 6.1 0.00 0.00 0.00 78 1010.9
20260901012257 74 261 1.7 7.0 0.00 0.00 0.00 77 1011.0
20260901011524 74 270 0.9 7.0 0.00 0.00 0.00 77 1011.0
20260901011246 74 289 1.7 6.1 0.00 0.00 0.00 76 1011.0
20260901010530 74 309 1.7 7.0 0.00 0.00 0.00 76 1011.0
20260901010025 74 273 2.6 8.7 0.00 0.00 0.00 76 1011.1
20260901005745 74 277 3.5 8.7 0.00 0.00 0.00 77 1011.1
20260901005024 74 350 4.3 7.8 0.00 0.00 0.00 78 1011.1
20260901004742 74 21 3.5 7.0 0.00 0.00 0.00 77 1011.1
20260901004024 75 261 0.9 7.0 0.00 0.00 0.00 77 1011.1
20260901003522 75 262 2.6 7.0 0.00 0.00 0.00 77 1011.1
20260901003022 75 309 2.6 7.0 0.00 0.00 0.00 76 1011.1
20260901002526 75 27 2.6 7.0 0.00 0.00 0.00 77 1011.1
20260901002023 75 272 1.7 7.0 0.00 0.00 0.00 76 1011.1
20260901001523 75 262 3.5 7.0 0.00 0.00 0.00 75 1011.1
20260901001022 75 342 4.3 7.0 0.00 0.00 0.00 73 1011.2
20260901000522 75 216 4.3 7.0 0.00 0.00 0.00 75 1011.2
20260901000023 75 295 1.7 7.0 0.00 0.00 0.00 75 1011.2
20260831235522 75 335 1.7 7.8 0.00 0.00 0.00 75 1011.2
20260831235021 75 11 2.6 7.8 0.00 0.00 0.00 74 1011.3
20260831234522 76 297 3.5 7.0 0.00 0.00 0.00 75 1011.3
20260831234023 76 319 3.5 7.0 0.00 0.00 0.00 73 1011.4
20260831233522 76 339 2.6 7.0 0.00 0.00 0.00 74 1011.3
20260831233023 76 301 2.6 7.0 0.00 0.00 0.00 74 1011.3
20260831232521 76 259 2.6 7.8 0.00 0.00 0.00 73 1011.4
20260831232023 76 318 6.1 7.8 0.00 0.00 0.00 72 1011.4
20260831231522 76 278 2.6 7.8 0.00 0.00 0.00 71 1011.4
20260831231245 75 326 4.3 7.8 0.00 0.00 0.00 72 1011.5
20260831230521 75 232 2.6 8.7 0.00 0.00 0.00 72 1011.5
20260831230251 75 320 2.6 11.3 0.00 0.00 0.00 73 1011.6
20260831225522 75 341 2.6 11.3 0.00 0.00 0.00 74 1011.5
20260831225021 75 272 3.5 10.4 0.00 0.00 0.00 74 1011.5
20260831224521 75 348 3.5 10.4 0.00 0.00 0.00 74 1011.7
20260831224022 76 335 8.7 8.7 0.00 0.00 0.00 76 1011.7
20260831223521 76 315 5.2 7.8 0.00 0.00 0.00 73 1011.8
20260831223243 76 322 1.7 7.8 0.00 0.00 0.00 73 1011.8
20260831222520 76 241 4.3 12.2 0.00 0.00 0.00 74 1011.9
20260831222021 76 343 3.5 12.2 0.00 0.00 0.00 74 1012.0
20260831221521 75 272 4.3 7.0 0.00 0.00 0.00 73 1012.1
20260831221025 75 351 3.5 10.4 0.00 0.00 0.00 74 1012.1
20260831220520 76 331 4.3 10.4 0.00 0.00 0.00 75 1012.1
20260831220026 76 22 1.7 10.4 0.00 0.00 0.00 75 1012.1
20260831215520 76 298 2.6 10.4 0.00 0.00 0.00 75 1012.1
20260831215241 75 260 3.5 10.4 0.00 0.00 0.00 73 1012.1
20260831214519 76 297 6.1 10.4 0.00 0.00 0.00 76 1012.1
20260831214020 76 238 4.3 11.3 0.00 0.00 0.00 74 1012.0
20260831213524 76 286 2.6 12.2 0.00 0.00 0.00 74 1012.0
20260831213018 76 345 8.7 12.2 0.00 0.00 0.00 75 1012.1
20260831212518 76 261 2.6 12.2 0.00 0.00 0.00 74 1012.2
20260831212019 76 291 2.6 12.2 0.00 0.00 0.00 75 1012.1
20260831211520 76 250 3.5 10.4 0.00 0.00 0.00 74 1012.2
20260831211249 76 259 2.6 8.7 0.00 0.00 0.00 73 1012.2
20260831210518 76 10 4.3 11.3 0.00 0.00 0.00 74 1012.2
20260831210018 76 10 4.3 11.3 0.00 0.00 0.00 74 1012.3
20260831205518 76 337 8.7 12.2 0.00 0.00 0.00 72 1012.2
20260831205018 76 273 5.2 13.0 0.00 0.00 0.00 72 1012.3
20260831204519 76 266 7.8 13.0 0.00 0.00 0.00 72 1012.5
20260831204022 76 244 1.7 13.9 0.00 0.00 0.00 73 1012.4
20260831203518 76 332 5.2 13.9 0.00 0.00 0.00 75 1012.5
20260831203236 76 316 8.7 10.4 0.00 0.00 0.00 72 1012.5
20260831202517 76 323 2.6 10.4 0.00 0.00 0.00 74 1012.4
20260831201518 76 241 2.6 10.4 0.00 0.00 0.00 73 1012.5
20260831201019 76 282 3.5 10.4 0.00 0.00 0.00 74 1012.4
20260831200522 76 273 3.5 8.7 0.00 0.00 0.00 75 1012.4
20260831200016 76 285 4.3 12.2 0.00 0.00 0.00 73 1012.6
20260831195739 76 1 5.2 12.2 0.00 0.00 0.00 74 1012.6
20260831195018 76 318 3.5 8.7 0.00 0.00 0.00 73 1012.6
20260831194517 76 351 7.8 10.4 0.00 0.00 0.00 73 1012.6
20260831194021 76 266 3.5 11.3 0.00 0.00 0.00 74 1012.6
20260831193518 76 338 1.7 11.3 0.00 0.00 0.00 73 1012.6
20260831193023 76 344 3.5 7.8 0.00 0.00 0.00 73 1012.6
20260831192516 76 298 4.3 11.3 0.00 0.00 0.00 72 1012.5
20260831192016 76 350 7.0 11.3 0.00 0.00 0.00 73 1012.6
20260831191517 77 336 8.7 12.2 0.00 0.00 0.00 72 1012.6
20260831191016 77 320 4.3 13.0 0.00 0.00 0.00 73 1012.7
20260831190515 77 312 8.7 13.0 0.00 0.00 0.00 73 1012.8
20260831190015 77 310 8.7 8.7 0.00 0.00 0.00 73 1012.7
20260831185516 77 279 3.5 10.4 0.00 0.00 0.00 71 1012.6
20260831185017 77 191 1.7 10.4 0.00 0.00 0.00 72 1012.7
20260831184515 77 296 2.6 8.7 0.00 0.00 0.00 71 1012.7
20260831184014 77 355 3.5 8.7 0.00 0.00 0.00 71 1012.6
20260831183235 77 257 3.5 8.7 0.00 0.00 0.00 69 1012.7
20260831182519 77 307 6.1 7.0 0.00 0.00 0.00 70 1012.7
20260831182015 77 233 1.7 10.4 0.00 0.00 0.00 71 1012.7
20260831181015 76 307 2.6 6.1 0.00 0.00 0.00 71 1012.6
20260831180515 76 246 3.5 7.0 0.00 0.00 0.00 70 1012.6
20260831180019 76 324 4.3 7.0 0.00 0.00 0.00 71 1012.7
20260831175514 76 290 0.9 6.1 0.00 0.00 0.00 71 1012.7
20260831175016 76 349 1.7 7.8 0.00 0.00 0.00 71 1012.6
20260831174515 76 332 4.3 7.8 0.00 0.00 0.00 72 1012.4
20260831174013 75 249 4.3 7.8 0.00 0.00 0.00 73 1012.4
20260831173513 75 309 3.5 7.8 0.00 0.00 0.00 73 1012.4
20260831173014 75 348 5.2 8.7 0.00 0.00 0.00 74 1012.5
20260831172515 75 299 3.5 10.4 0.00 0.00 0.00 74 1012.4
20260831172014 75 331 3.5 10.4 0.00 0.00 0.00 74 1012.5
20260831171513 75 319 6.1 10.4 0.00 0.00 0.00 75 1012.4
20260831171014 76 326 4.3 10.4 0.00 0.00 0.00 75 1012.4
20260831170514 76 302 2.6 8.7 0.00 0.00 0.00 74 1012.3
20260831170012 76 335 5.2 8.7 0.00 0.00 0.00 75 1012.3
20260831165513 76 253 4.3 6.1 0.00 0.00 0.00 74 1012.3
20260831165013 76 274 1.7 7.0 0.00 0.00 0.00 72 1012.2
20260831164514 76 294 3.5 8.7 0.00 0.00 0.00 73 1012.2
20260831164012 76 316 3.5 8.7 0.00 0.00 0.00 73 1012.1
20260831163512 75 327 2.6 8.7 0.00 0.00 0.00 73 1012.2
20260831163013 75 350 4.3 8.7 0.00 0.00 0.00 74 1012.2
20260831162513 75 8 2.6 7.0 0.00 0.00 0.00 72 1012.1
20260831162011 75 327 5.2 7.0 0.00 0.00 0.00 73 1012.1
20260831161732 74 300 2.6 5.2 0.00 0.00 0.00 74 1012.1
20260831161012 74 314 0.9 5.2 0.00 0.00 0.00 74 1012.1
20260831160513 74 308 1.7 5.2 0.00 0.00 0.00 75 1012.2
20260831160011 74 266 1.7 5.2 0.00 0.00 0.00 76 1012.2
20260831155511 74 310 2.6 5.2 0.00 0.00 0.00 76 1012.2
20260831155011 74 309 0.9 5.2 0.00 0.00 0.00 78 1012.2
20260831154512 74 310 1.7 5.2 0.00 0.00 0.00 77 1012.2
20260831154011 74 311 1.7 4.3 0.00 0.00 0.00 77 1012.2
20260831153510 73 311 0.9 4.3 0.00 0.00 0.00 77 1012.1
20260831153011 73 312 1.7 2.6 0.00 0.00 0.00 77 1012.2
20260831152511 73 312 1.7 2.6 0.00 0.00 0.00 77 1012.1
20260831152011 73 312 0.0 2.6 0.00 0.00 0.00 79 1012.0
20260831151510 73 315 0.0 1.7 0.00 0.00 0.00 77 1011.9
20260831151010 72 265 0.9 2.6 0.00 0.00 0.00 79 1012.0
20260831150511 72 230 0.9 2.6 0.00 0.00 0.00 78 1011.9
20260831150230 71 267 0.0 1.7 0.00 0.00 0.00 78 1011.9
20260831145510 71 260 0.0 1.7 0.00 0.00 0.00 80 1011.9
20260831145009 71 252 0.0 1.7 0.00 0.00 0.00 81 1011.9
20260831144731 70 255 0.9 1.7 0.00 0.00 0.00 81 1011.9
20260831144011 70 259 0.0 2.6 0.00 0.00 0.00 82 1011.8
20260831143009 69 248 0.0 0.0 0.00 0.00 0.00 83 1011.8
20260831142731 69 259 0.0 0.0 0.00 0.00 0.00 83 1011.8
20260831142010 69 250 0.0 0.0 0.00 0.00 0.00 84 1011.7
20260831141509 69 250 0.0 0.0 0.00 0.00 0.00 85 1011.7
20260831141009 69 254 0.0 0.0 0.00 0.00 0.00 85 1011.6
20260831140510 69 252 0.0 0.0 0.00 0.00 0.00 85 1011.5
20260831140230 69 250 0.0 0.0 0.00 0.00 0.00 85 1011.5
20260831135508 69 248 0.0 0.0 0.00 0.00 0.00 85 1011.4
20260831135008 69 249 0.0 0.0 0.00 0.00 0.00 85 1011.2
20260831134509 69 255 0.0 2.6 0.00 0.00 0.00 85 1011.2
20260831134234 69 268 0.0 2.6 0.00 0.00 0.00 85 1011.1
20260831133008 69 256 0.0 1.7 0.00 0.00 0.00 85 1011.0
20260831132509 69 258 0.0 2.6 0.00 0.00 0.00 85 1011.0
20260831132008 69 264 0.0 2.6 0.00 0.00 0.00 85 1010.9
20260831131508 69 257 0.0 2.6 0.00 0.00 0.00 85 1011.0
20260831131007 69 285 1.7 4.3 0.00 0.00 0.00 85 1011.0
20260831130508 69 276 0.9 4.3 0.00 0.00 0.00 85 1011.0
20260831130008 69 294 0.0 2.6 0.00 0.00 0.00 85 1010.9
20260831125507 69 290 0.0 0.0 0.00 0.00 0.00 85 1010.9
20260831125007 69 254 0.0 0.0 0.00 0.00 0.00 86 1010.9
20260831124727 69 251 0.0 0.0 0.00 0.00 0.00 85 1010.9
20260831124008 69 245 0.0 0.0 0.00 0.00 0.00 85 1010.9
20260831123507 69 260 0.0 0.0 0.00 0.00 0.00 85 1010.8
20260831123007 69 255 0.0 2.6 0.00 0.00 0.00 85 1010.8
20260831122506 69 257 0.9 2.6 0.00 0.00 0.00 85 1010.8
20260831122007 69 252 0.9 4.3 0.00 0.00 0.00 85 1010.8
20260831121508 69 278 1.7 5.2 0.00 0.00 0.00 85 1010.8
20260831121006 69 291 2.6 5.2 0.00 0.00 0.00 85 1010.8
20260831120727 69 298 4.3 5.2 0.00 0.00 0.00 85 1010.8
20260831120230 69 332 2.6 6.1 0.00 0.00 0.00 85 1010.8
20260831115506 69 290 3.5 6.1 0.00 0.00 0.00 85 1010.9
20260831115006 69 339 2.6 4.3 0.00 0.00 0.00 86 1010.8
20260831114722 69 289 0.0 1.7 0.00 0.00 0.00 86 1010.8
20260831114006 69 263 0.0 1.7 0.00 0.00 0.00 86 1010.8
20260831113507 69 265 0.0 2.6 0.00 0.00 0.00 86 1010.7
20260831113006 69 223 0.9 4.3 0.00 0.00 0.00 85 1010.8
20260831112505 70 259 1.7 4.3 0.00 0.00 0.00 85 1010.8
20260831112006 70 256 0.0 4.3 0.00 0.00 0.00 86 1010.7
20260831111508 70 262 0.9 4.3 0.00 0.00 0.00 86 1010.8
20260831111005 70 254 0.9 2.6 0.00 0.00 0.00 86 1010.8
20260831110505 70 278 0.9 4.3 0.00 0.00 0.00 86 1010.8
20260831110228 70 259 0.0 4.3 0.00 0.00 0.00 86 1010.9
20260831105505 70 266 2.6 2.6 0.00 0.00 0.00 86 1010.8
20260831105005 70 262 0.0 1.7 0.00 0.00 0.00 85 1010.8
20260831104506 70 256 0.0 2.6 0.00 0.00 0.00 85 1010.8
20260831104005 70 239 0.9 2.6 0.00 0.00 0.00 85 1010.9
20260831103504 70 240 0.9 1.7 0.00 0.00 0.00 85 1011.0
20260831103227 70 253 0.9 1.7 0.00 0.00 0.00 86 1010.9
20260831102503 70 250 0.9 1.7 0.00 0.00 0.00 86 1011.0
20260831102005 70 252 0.9 4.3 0.00 0.00 0.00 86 1010.9
20260831101507 70 244 1.7 4.3 0.00 0.00 0.00 86 1010.9
20260831101004 70 251 0.0 2.6 0.00 0.00 0.00 86 1010.9
20260831100726 70 282 1.7 2.6 0.00 0.00 0.00 86 1010.9
20260831095722 70 266 0.0 1.7 0.00 0.00 0.00 86 1010.9
20260831095222 70 258 0.0 2.6 0.00 0.00 0.00 86 1010.9
20260831094723 70 273 0.9 2.6 0.00 0.00 0.00 86 1011.0
20260831094222 70 272 1.7 4.3 0.00 0.00 0.00 86 1010.9
20260831093221 70 256 1.7 2.6 0.00 0.00 0.00 87 1011.0